DAL865 KATL-KBOS

Flight info

Callsign DAL865
Flight time 2h 5m
Altitude 37000
Route PLMMR3 BURGG Q22 RBV Q419 JFK ROBUC3
Aircraft A321/M-SDE3FGHIRWY/LB1

Departure

Time 2026-05-07 00:21
Airport Hartsfield Jackson Atlanta International Airport (KATL)

Arrival

Time 2026-05-07 02:26
Airport Boston Logan International Airport (KBOS)
Time Latitude Longitude Altitude Speed Heading
2026-05-06 23:47 33.63998 -84.43542 1036 ft 0 kts 268°
2026-05-07 00:08 33.63999 -84.43527 1035 ft 4 kts 269°
2026-05-07 00:08 33.64000 -84.43495 1035 ft 4 kts 254°
2026-05-07 00:08 33.64012 -84.43469 1035 ft 4 kts 214°
2026-05-07 00:08 33.64031 -84.43460 1035 ft 1 kts 180°
2026-05-07 00:09 33.64035 -84.43460 1035 ft 0 kts 180°
2026-05-07 00:13 33.64021 -84.43461 1035 ft 7 kts 180°
2026-05-07 00:13 33.63954 -84.43461 1035 ft 10 kts 180°
2026-05-07 00:14 33.63884 -84.43460 1035 ft 10 kts 180°
2026-05-07 00:14 33.63815 -84.43460 1035 ft 10 kts 180°
2026-05-07 00:14 33.63737 -84.43460 1035 ft 12 kts 180°
2026-05-07 00:14 33.63673 -84.43426 1035 ft 10 kts 122°
2026-05-07 00:15 33.63665 -84.43333 1035 ft 14 kts 90°
2026-05-07 00:15 33.63665 -84.43184 1035 ft 21 kts 90°
2026-05-07 00:15 33.63665 -84.43017 1035 ft 19 kts 90°
2026-05-07 00:15 33.63665 -84.42860 1035 ft 18 kts 90°
2026-05-07 00:16 33.63660 -84.42725 1036 ft 15 kts 95°
2026-05-07 00:16 33.63656 -84.42607 1036 ft 14 kts 90°
2026-05-07 00:16 33.63657 -84.42485 1036 ft 18 kts 90°
2026-05-07 00:16 33.63657 -84.42305 1036 ft 22 kts 90°
2026-05-07 00:17 33.63647 -84.42190 1036 ft 12 kts 113°
2026-05-07 00:17 33.63600 -84.42139 1036 ft 8 kts 146°
2026-05-07 00:17 33.63583 -84.42042 1036 ft 17 kts 89°
2026-05-07 00:17 33.63582 -84.41905 1035 ft 16 kts 90°
2026-05-07 00:18 33.63583 -84.41771 1035 ft 17 kts 90°
2026-05-07 00:18 33.63583 -84.41610 1035 ft 21 kts 90°
2026-05-07 00:18 33.63582 -84.41428 1034 ft 21 kts 90°
2026-05-07 00:18 33.63582 -84.41255 1035 ft 20 kts 90°
2026-05-07 00:19 33.63583 -84.41094 1035 ft 19 kts 90°
2026-05-07 00:19 33.63582 -84.40969 1035 ft 13 kts 94°
2026-05-07 00:19 33.63582 -84.40880 1035 ft 12 kts 95°
2026-05-07 00:19 33.63514 -84.40834 1036 ft 12 kts 188°
2026-05-07 00:20 33.63472 -84.40909 1036 ft 16 kts 264°
2026-05-07 00:20 33.63471 -84.41301 1035 ft 81 kts 270°
2026-05-07 00:20 33.63470 -84.42207 1036 ft 134 kts 270°
2026-05-07 00:20 33.63466 -84.43498 1084 ft 169 kts 269°
2026-05-07 00:21 33.63455 -84.44884 1700 ft 163 kts 266°
2026-05-07 00:21 33.63365 -84.46213 2233 ft 160 kts 256°
2026-05-07 00:21 33.62978 -84.47488 2676 ft 167 kts 241°
2026-05-07 00:21 33.62459 -84.48731 3145 ft 173 kts 241°
2026-05-07 00:22 33.61929 -84.50044 3599 ft 176 kts 243°
2026-05-07 00:22 33.61408 -84.51381 4071 ft 178 kts 243°
2026-05-07 00:22 33.60890 -84.52735 4552 ft 179 kts 243°
2026-05-07 00:22 33.60356 -84.54091 4950 ft 183 kts 244°
2026-05-07 00:23 33.59809 -84.55510 5295 ft 192 kts 244°
2026-05-07 00:23 33.59208 -84.56946 5791 ft 192 kts 237°
2026-05-07 00:23 33.58299 -84.58109 6307 ft 194 kts 219°
2026-05-07 00:23 33.57017 -84.58720 6733 ft 212 kts 191°
2026-05-07 00:24 33.55473 -84.58619 7054 ft 233 kts 180°
2026-05-07 00:24 33.53848 -84.58447 7548 ft 242 kts 182°
2026-05-07 00:24 33.52219 -84.58327 8115 ft 249 kts 183°
2026-05-07 00:24 33.50532 -84.58249 8613 ft 259 kts 185°
2026-05-07 00:25 33.48702 -84.58165 9206 ft 269 kts 180°
2026-05-07 00:25 33.46827 -84.57646 9791 ft 286 kts 165°
2026-05-07 00:25 33.45121 -84.56333 10245 ft 310 kts 140°
2026-05-07 00:25 33.43958 -84.54076 10741 ft 332 kts 111°
2026-05-07 00:26 33.43756 -84.51277 11283 ft 347 kts 84°
2026-05-07 00:26 33.44236 -84.48413 11880 ft 353 kts 79°
2026-05-07 00:26 33.44779 -84.45485 12155 ft 371 kts 79°
2026-05-07 00:26 33.45347 -84.42393 12394 ft 387 kts 79°
2026-05-07 00:27 33.45783 -84.39186 12904 ft 393 kts 83°
2026-05-07 00:27 33.46305 -84.35953 13522 ft 399 kts 77°
2026-05-07 00:27 33.47202 -84.32791 14077 ft 404 kts 65°
2026-05-07 00:27 33.48652 -84.29902 14605 ft 406 kts 49°
2026-05-07 00:28 33.50554 -84.27460 15143 ft 407 kts 42°
2026-05-07 00:28 33.52559 -84.25060 15738 ft 409 kts 41°
2026-05-07 00:28 33.54581 -84.22647 16332 ft 411 kts 41°
2026-05-07 00:28 33.56610 -84.20215 16927 ft 414 kts 40°
2026-05-07 00:29 33.58643 -84.17761 17480 ft 417 kts 40°
2026-05-07 00:29 33.60687 -84.15269 18031 ft 420 kts 40°
2026-05-07 00:30 33.66867 -84.07659 19455 ft 429 kts 40°
2026-05-07 00:30 33.68962 -84.05092 19901 ft 432 kts 40°
2026-05-07 00:30 33.71077 -84.02505 20344 ft 435 kts 39°
2026-05-07 00:30 33.73179 -83.99939 20774 ft 438 kts 39°
2026-05-07 00:31 33.75323 -83.97314 21221 ft 442 kts 39°
2026-05-07 00:31 33.77478 -83.94668 21663 ft 445 kts 39°
2026-05-07 00:31 33.79648 -83.92001 22097 ft 448 kts 39°
2026-05-07 00:31 33.81835 -83.89314 22511 ft 452 kts 39°
2026-05-07 00:32 33.84046 -83.86597 22881 ft 456 kts 39°
2026-05-07 00:32 33.86274 -83.83854 23260 ft 460 kts 39°
2026-05-07 00:32 33.88513 -83.81092 23665 ft 463 kts 39°
2026-05-07 00:32 33.90765 -83.78301 24005 ft 466 kts 39°
2026-05-07 00:33 33.93027 -83.75499 24353 ft 468 kts 39°
2026-05-07 00:33 33.95267 -83.72644 24707 ft 473 kts 43°
2026-05-07 00:33 33.97293 -83.69480 25042 ft 479 kts 47°
2026-05-07 00:33 33.99263 -83.66290 25385 ft 482 kts 47°
2026-05-07 00:34 34.01259 -83.63038 25731 ft 484 kts 47°
2026-05-07 00:34 34.03260 -83.59773 26084 ft 486 kts 47°
2026-05-07 00:34 34.05272 -83.56486 26418 ft 488 kts 48°
2026-05-07 00:34 34.07300 -83.53170 26692 ft 492 kts 48°
2026-05-07 00:35 34.09333 -83.49845 27034 ft 494 kts 48°
2026-05-07 00:35 34.10687 -83.47631 27259 ft 495 kts 48°
2026-05-07 00:35 34.12736 -83.44277 27583 ft 497 kts 48°
2026-05-07 00:35 34.15458 -83.39817 27957 ft 500 kts 48°
2026-05-07 00:36 34.17528 -83.36423 28269 ft 502 kts 48°
2026-05-07 00:36 34.19601 -83.33016 28580 ft 505 kts 48°
2026-05-07 00:36 34.21680 -83.29595 28883 ft 507 kts 48°
2026-05-07 00:36 34.23771 -83.26149 29169 ft 509 kts 49°
2026-05-07 00:37 34.25864 -83.22695 29439 ft 511 kts 49°
2026-05-07 00:37 34.27974 -83.19225 29718 ft 513 kts 48°
2026-05-07 00:37 34.29375 -83.16921 29918 ft 515 kts 49°
2026-05-07 00:37 34.31500 -83.13419 30122 ft 517 kts 49°
2026-05-07 00:38 34.33633 -83.09913 30381 ft 519 kts 49°
2026-05-07 00:38 34.35812 -83.06347 30622 ft 520 kts 49°
2026-05-07 00:38 34.38642 -83.01727 30928 ft 523 kts 49°
2026-05-07 00:38 34.40812 -82.98194 31238 ft 523 kts 48°
2026-05-07 00:39 34.42277 -82.95808 31460 ft 522 kts 48°
2026-05-07 00:39 34.45140 -82.91131 31914 ft 522 kts 48°
2026-05-07 00:39 34.46565 -82.88792 32146 ft 521 kts 48°
2026-05-07 00:39 34.48717 -82.85251 32478 ft 521 kts 48°
2026-05-07 00:40 34.50861 -82.81710 32808 ft 521 kts 48°
2026-05-07 00:40 34.53005 -82.78162 33152 ft 521 kts 49°
2026-05-07 00:40 34.55148 -82.74615 33432 ft 522 kts 49°
2026-05-07 00:40 34.57298 -82.71063 33748 ft 522 kts 49°
2026-05-07 00:41 34.59441 -82.67519 34052 ft 522 kts 48°
2026-05-07 00:41 34.61591 -82.63968 34297 ft 522 kts 48°
2026-05-07 00:41 34.63525 -82.60771 34509 ft 523 kts 48°
2026-05-07 00:41 34.65678 -82.57214 34726 ft 523 kts 47°
2026-05-07 00:42 34.67830 -82.53650 34946 ft 524 kts 47°
2026-05-07 00:42 34.69969 -82.50049 35176 ft 526 kts 48°
2026-05-07 00:42 34.72091 -82.46428 35446 ft 526 kts 48°
2026-05-07 00:42 34.74211 -82.42795 35667 ft 527 kts 48°
2026-05-07 00:43 34.76334 -82.39155 35916 ft 528 kts 47°
2026-05-07 00:43 34.78463 -82.35503 36051 ft 531 kts 47°
2026-05-07 00:43 34.80602 -82.31835 36245 ft 532 kts 47°
2026-05-07 00:43 34.82744 -82.28167 36441 ft 532 kts 47°
2026-05-07 00:44 34.84861 -82.24544 36656 ft 533 kts 46°
2026-05-07 00:44 34.87012 -82.20862 36860 ft 533 kts 46°
2026-05-07 00:44 34.89160 -82.17175 37000 ft 534 kts 46°
2026-05-07 00:44 34.91306 -82.13483 37031 ft 533 kts 46°
2026-05-07 00:45 34.95581 -82.06112 36986 ft 532 kts 46°
2026-05-07 00:45 34.99855 -81.98732 36997 ft 534 kts 46°
2026-05-07 00:46 35.04121 -81.91367 36980 ft 536 kts 46°
2026-05-07 00:46 35.08565 -81.84096 36967 ft 533 kts 43°
2026-05-07 00:47 35.13105 -81.76939 36956 ft 533 kts 43°
2026-05-07 00:47 35.17608 -81.69741 37002 ft 534 kts 44°
2026-05-07 00:48 35.22080 -81.62485 37052 ft 534 kts 44°
2026-05-07 00:48 35.26545 -81.55213 36945 ft 535 kts 44°
2026-05-07 00:49 35.30991 -81.47963 36941 ft 536 kts 44°
2026-05-07 00:49 35.35476 -81.40667 36969 ft 537 kts 44°
2026-05-07 00:50 35.39959 -81.33353 36991 ft 537 kts 44°
2026-05-07 00:50 35.44428 -81.25994 37047 ft 538 kts 44°
2026-05-07 00:51 35.48904 -81.18640 37013 ft 538 kts 44°
2026-05-07 00:51 35.53363 -81.11326 37009 ft 539 kts 44°
2026-05-07 00:52 35.57851 -81.03934 36998 ft 540 kts 44°
2026-05-07 00:52 35.62337 -80.96535 36988 ft 540 kts 44°
2026-05-07 00:53 35.66820 -80.89124 36973 ft 540 kts 44°
2026-05-07 00:53 35.71287 -80.81704 37003 ft 540 kts 44°
2026-05-07 00:54 35.75718 -80.74324 36999 ft 539 kts 44°
2026-05-07 00:54 35.80180 -80.66912 36988 ft 539 kts 44°
2026-05-07 00:55 35.84637 -80.59494 36993 ft 538 kts 44°
2026-05-07 00:55 35.89078 -80.52045 36968 ft 539 kts 44°
2026-05-07 00:56 35.93507 -80.44590 36961 ft 539 kts 44°
2026-05-07 00:56 35.97912 -80.37184 36950 ft 539 kts 44°
2026-05-07 00:57 36.02356 -80.29738 36973 ft 539 kts 44°
2026-05-07 00:57 36.06804 -80.22295 36958 ft 539 kts 44°
2026-05-07 00:58 36.11249 -80.14826 36952 ft 540 kts 44°
2026-05-07 00:58 36.15679 -80.07337 36967 ft 539 kts 44°
2026-05-07 00:59 36.22265 -79.96134 36971 ft 539 kts 44°
2026-05-07 01:00 36.26687 -79.88637 36967 ft 539 kts 44°
2026-05-07 01:00 36.31112 -79.81148 36979 ft 539 kts 44°
2026-05-07 01:01 36.35493 -79.73670 36965 ft 539 kts 44°
2026-05-07 01:01 36.39879 -79.66148 36945 ft 538 kts 44°
2026-05-07 01:02 36.44280 -79.58625 36947 ft 538 kts 44°
2026-05-07 01:02 36.48675 -79.51093 36945 ft 538 kts 44°
2026-05-07 01:03 36.53058 -79.43544 36981 ft 538 kts 44°
2026-05-07 01:03 36.57431 -79.35994 36976 ft 538 kts 44°
2026-05-07 01:04 36.61776 -79.28493 36973 ft 537 kts 44°
2026-05-07 01:04 36.65838 -79.21471 36968 ft 537 kts 44°
2026-05-07 01:05 36.70199 -79.13911 36960 ft 538 kts 44°
2026-05-07 01:05 36.74556 -79.06327 36948 ft 539 kts 44°
2026-05-07 01:06 36.78906 -78.98741 36923 ft 537 kts 44°
2026-05-07 01:06 36.83243 -78.91147 36945 ft 537 kts 44°
2026-05-07 01:07 36.87538 -78.83586 36944 ft 537 kts 44°
2026-05-07 01:07 36.91841 -78.75972 36940 ft 537 kts 45°
2026-05-07 01:08 36.96139 -78.68350 36966 ft 536 kts 45°
2026-05-07 01:08 37.00439 -78.60729 36958 ft 536 kts 45°
2026-05-07 01:09 37.04729 -78.53097 36948 ft 536 kts 45°
2026-05-07 01:09 37.08977 -78.45522 36938 ft 535 kts 45°
2026-05-07 01:10 37.13246 -78.37882 36930 ft 535 kts 45°
2026-05-07 01:10 37.17508 -78.30231 36948 ft 536 kts 45°
2026-05-07 01:11 37.21553 -78.22326 36929 ft 545 kts 52°
2026-05-07 01:11 37.25247 -78.14020 36918 ft 546 kts 52°
2026-05-07 01:12 37.28906 -78.05740 36918 ft 546 kts 52°
2026-05-07 01:12 37.32593 -77.97395 36912 ft 547 kts 52°
2026-05-07 01:13 37.36287 -77.89037 36944 ft 547 kts 52°
2026-05-07 01:13 37.39970 -77.80681 36950 ft 546 kts 52°
2026-05-07 01:14 37.43638 -77.72310 36946 ft 546 kts 52°
2026-05-07 01:14 37.47278 -77.63988 36947 ft 546 kts 52°
2026-05-07 01:15 37.50942 -77.55602 36945 ft 546 kts 52°
2026-05-07 01:15 37.54596 -77.47212 36908 ft 545 kts 52°
2026-05-07 01:16 37.58232 -77.38845 36897 ft 545 kts 53°
2026-05-07 01:16 37.61864 -77.30455 36902 ft 546 kts 53°
2026-05-07 01:17 37.65495 -77.22035 36880 ft 546 kts 52°
2026-05-07 01:17 37.67499 -77.18024 36901 ft 534 kts 43°
2026-05-07 01:17 37.69638 -77.14784 36918 ft 520 kts 34°
2026-05-07 01:17 37.72201 -77.11795 36925 ft 505 kts 25°
2026-05-07 01:18 37.75025 -77.09294 36927 ft 488 kts 16°
2026-05-07 01:18 37.80915 -77.05227 36931 ft 482 kts 14°
2026-05-07 01:19 37.86801 -77.01163 36940 ft 483 kts 14°
2026-05-07 01:19 37.92702 -76.97054 36955 ft 483 kts 14°
2026-05-07 01:20 37.98550 -76.92971 36902 ft 483 kts 14°
2026-05-07 01:20 38.04444 -76.88870 36898 ft 483 kts 14°
2026-05-07 01:21 38.10343 -76.84771 36884 ft 483 kts 14°
2026-05-07 01:21 38.16232 -76.80653 36928 ft 484 kts 14°
2026-05-07 01:22 38.22074 -76.76550 36883 ft 482 kts 14°
2026-05-07 01:22 38.24963 -76.74308 36880 ft 496 kts 23°
2026-05-07 01:22 38.27678 -76.71499 36881 ft 506 kts 27°
2026-05-07 01:23 38.33043 -76.65687 36884 ft 507 kts 27°
2026-05-07 01:23 38.38417 -76.59858 36926 ft 508 kts 27°
2026-05-07 01:24 38.43774 -76.54048 36912 ft 507 kts 27°
2026-05-07 01:24 38.49133 -76.48283 36891 ft 507 kts 27°
2026-05-07 01:25 38.54531 -76.42502 36900 ft 506 kts 27°
2026-05-07 01:25 38.59919 -76.36720 36898 ft 505 kts 27°
2026-05-07 01:26 38.65278 -76.30932 36891 ft 505 kts 27°
2026-05-07 01:26 38.70644 -76.25130 36895 ft 505 kts 27°
2026-05-07 01:27 38.75973 -76.19358 36947 ft 505 kts 26°
2026-05-07 01:27 38.81342 -76.13526 36904 ft 506 kts 27°
2026-05-07 01:28 38.86708 -76.07689 36910 ft 506 kts 27°
2026-05-07 01:28 38.92070 -76.01834 36913 ft 506 kts 27°
2026-05-07 01:29 38.97413 -75.95956 36915 ft 508 kts 28°
2026-05-07 01:29 39.02623 -75.89857 36882 ft 511 kts 30°
2026-05-07 01:30 39.07793 -75.83551 36883 ft 513 kts 30°
2026-05-07 01:30 39.12983 -75.77263 36859 ft 512 kts 30°
2026-05-07 01:31 39.18202 -75.71028 36914 ft 511 kts 29°
2026-05-07 01:31 39.23425 -75.64808 36900 ft 511 kts 30°
2026-05-07 01:32 39.28636 -75.58556 36892 ft 512 kts 30°
2026-05-07 01:32 39.33796 -75.52330 36887 ft 512 kts 30°
2026-05-07 01:33 39.39008 -75.46040 36865 ft 512 kts 29°
2026-05-07 01:33 39.44213 -75.39742 36840 ft 513 kts 30°
2026-05-07 01:34 39.49421 -75.33433 36864 ft 513 kts 30°
2026-05-07 01:34 39.54631 -75.27106 36915 ft 513 kts 29°
2026-05-07 01:35 39.59806 -75.20808 36900 ft 515 kts 29°
2026-05-07 01:35 39.65029 -75.14435 36892 ft 516 kts 30°
2026-05-07 01:36 39.70276 -75.08099 36887 ft 513 kts 28°
2026-05-07 01:36 39.75640 -75.02061 36866 ft 508 kts 26°
2026-05-07 01:37 39.81041 -74.96135 36892 ft 508 kts 26°
2026-05-07 01:37 39.86366 -74.90187 36901 ft 508 kts 27°
2026-05-07 01:38 39.91779 -74.84394 36963 ft 496 kts 20°
2026-05-07 01:38 39.97425 -74.79174 36873 ft 497 kts 20°
2026-05-07 01:39 40.03054 -74.73887 36858 ft 509 kts 26°
2026-05-07 01:39 40.05648 -74.70612 36858 ft 526 kts 35°
2026-05-07 01:39 40.08114 -74.67078 36847 ft 527 kts 35°
2026-05-07 01:40 40.13000 -74.60008 36868 ft 529 kts 35°
2026-05-07 01:40 40.17933 -74.52835 36850 ft 531 kts 35°
2026-05-07 01:41 40.23193 -74.46327 36865 ft 512 kts 24°
2026-05-07 01:41 40.28740 -74.40445 36919 ft 513 kts 25°
2026-05-07 01:42 40.34292 -74.34517 36853 ft 515 kts 25°
2026-05-07 01:42 40.39829 -74.28570 36863 ft 513 kts 25°
2026-05-07 01:43 40.45115 -74.22221 36858 ft 538 kts 42°
2026-05-07 01:43 40.49408 -74.14190 35663 ft 545 kts 45°
2026-05-07 01:43 40.51567 -74.10085 34748 ft 554 kts 45°
2026-05-07 01:44 40.53760 -74.05885 34006 ft 558 kts 46°
2026-05-07 01:44 40.55952 -74.01665 33218 ft 558 kts 46°
2026-05-07 01:44 40.58125 -73.97468 31832 ft 554 kts 47°
2026-05-07 01:44 40.60265 -73.93339 30451 ft 553 kts 48°
2026-05-07 01:45 40.62412 -73.89199 29601 ft 537 kts 48°
2026-05-07 01:45 40.64468 -73.85223 29352 ft 518 kts 48°
2026-05-07 01:45 40.66479 -73.81356 29098 ft 515 kts 47°
2026-05-07 01:45 40.68505 -73.77481 28824 ft 512 kts 47°
2026-05-07 01:46 40.70521 -73.73625 28544 ft 509 kts 47°
2026-05-07 01:46 40.72522 -73.69784 28288 ft 507 kts 47°
2026-05-07 01:46 40.74414 -73.66139 28036 ft 505 kts 48°
2026-05-07 01:46 40.76386 -73.62327 27734 ft 502 kts 48°
2026-05-07 01:47 40.78344 -73.58533 27463 ft 499 kts 48°
2026-05-07 01:47 40.80260 -73.54809 27270 ft 496 kts 48°
2026-05-07 01:47 40.82200 -73.51033 27017 ft 496 kts 48°
2026-05-07 01:47 40.84130 -73.47271 26790 ft 494 kts 49°
2026-05-07 01:48 40.86125 -73.43658 26859 ft 488 kts 41°
2026-05-07 01:48 40.88361 -73.40304 26510 ft 484 kts 39°
2026-05-07 01:48 40.90600 -73.36995 26286 ft 482 kts 39°
2026-05-07 01:48 40.92836 -73.33708 26027 ft 480 kts 39°
2026-05-07 01:49 40.95066 -73.30436 25779 ft 478 kts 39°
2026-05-07 01:49 40.97284 -73.27174 25583 ft 476 kts 39°
2026-05-07 01:49 40.99460 -73.23961 25288 ft 475 kts 39°
2026-05-07 01:49 41.01654 -73.20709 25059 ft 473 kts 39°
2026-05-07 01:50 41.03843 -73.17450 24808 ft 472 kts 40°
2026-05-07 01:50 41.06016 -73.14203 24579 ft 470 kts 40°
2026-05-07 01:50 41.08181 -73.10971 24328 ft 469 kts 40°
2026-05-07 01:50 41.10344 -73.07739 24084 ft 467 kts 40°
2026-05-07 01:51 41.12493 -73.04524 23835 ft 465 kts 40°
2026-05-07 01:51 41.14640 -73.01324 23630 ft 464 kts 40°
2026-05-07 01:51 41.16755 -72.98171 23340 ft 463 kts 40°
2026-05-07 01:51 41.18889 -72.94984 23059 ft 461 kts 40°
2026-05-07 01:52 41.20917 -72.91686 22840 ft 465 kts 49°
2026-05-07 01:52 41.22539 -72.87950 22738 ft 469 kts 58°
2026-05-07 01:52 41.24006 -72.84091 22555 ft 468 kts 58°
2026-05-07 01:52 41.25474 -72.80244 22290 ft 465 kts 58°
2026-05-07 01:53 41.26935 -72.76431 22027 ft 462 kts 58°
2026-05-07 01:53 41.28388 -72.72641 21770 ft 459 kts 59°
2026-05-07 01:53 41.29827 -72.68870 21550 ft 456 kts 59°
2026-05-07 01:53 41.31236 -72.65171 21302 ft 453 kts 59°
2026-05-07 01:54 41.32654 -72.61441 21061 ft 450 kts 60°
2026-05-07 01:54 41.34059 -72.57737 20822 ft 447 kts 60°
2026-05-07 01:54 41.35292 -72.54480 20872 ft 446 kts 60°
2026-05-07 01:54 41.36685 -72.50796 20866 ft 446 kts 60°
2026-05-07 01:55 41.38081 -72.47108 20871 ft 446 kts 60°
2026-05-07 01:55 41.39480 -72.43417 20868 ft 446 kts 60°
2026-05-07 01:55 41.40861 -72.39775 20868 ft 446 kts 60°
2026-05-07 01:55 41.42255 -72.36090 20867 ft 446 kts 60°
2026-05-07 01:56 41.43645 -72.32391 20863 ft 446 kts 60°
2026-05-07 01:56 41.45031 -72.28693 20860 ft 446 kts 60°
2026-05-07 01:56 41.46417 -72.24989 20836 ft 446 kts 60°
2026-05-07 01:56 41.47800 -72.21286 20854 ft 446 kts 60°
2026-05-07 01:57 41.49178 -72.17587 20673 ft 445 kts 60°
2026-05-07 01:57 41.50540 -72.13896 20419 ft 442 kts 61°
2026-05-07 01:57 41.51870 -72.10264 20174 ft 439 kts 61°
2026-05-07 01:57 41.53199 -72.06614 19927 ft 436 kts 62°
2026-05-07 01:58 41.54521 -72.02979 19695 ft 433 kts 62°
2026-05-07 01:58 41.55822 -71.99368 19461 ft 431 kts 63°
2026-05-07 01:58 41.57031 -71.95721 19223 ft 428 kts 66°
2026-05-07 01:58 41.58146 -71.92049 19009 ft 426 kts 68°
2026-05-07 01:59 41.59207 -71.88367 18756 ft 423 kts 69°
2026-05-07 01:59 41.60241 -71.84712 18524 ft 420 kts 69°
2026-05-07 01:59 41.61270 -71.81078 18298 ft 416 kts 69°
2026-05-07 01:59 41.62303 -71.77479 18058 ft 414 kts 69°
2026-05-07 02:00 41.63335 -71.73958 17787 ft 411 kts 68°
2026-05-07 02:00 41.64388 -71.70412 17521 ft 410 kts 68°
2026-05-07 02:00 41.65439 -71.66876 17264 ft 408 kts 68°
2026-05-07 02:00 41.66479 -71.63355 17004 ft 406 kts 68°
2026-05-07 02:01 41.67500 -71.59878 16747 ft 398 kts 68°
2026-05-07 02:01 41.68501 -71.56467 16550 ft 391 kts 68°
2026-05-07 02:01 41.69491 -71.53087 16259 ft 389 kts 69°
2026-05-07 02:01 41.70473 -71.49731 15924 ft 386 kts 69°
2026-05-07 02:02 41.71445 -71.46396 15615 ft 384 kts 69°
2026-05-07 02:02 41.72441 -71.43133 15368 ft 383 kts 63°
2026-05-07 02:02 41.73724 -71.40023 15125 ft 381 kts 59°
2026-05-07 02:02 41.75041 -71.36951 14886 ft 380 kts 59°
2026-05-07 02:03 41.76348 -71.33891 14646 ft 378 kts 59°
2026-05-07 02:03 41.77652 -71.30836 14406 ft 377 kts 59°
2026-05-07 02:03 41.78942 -71.27815 14143 ft 371 kts 59°
2026-05-07 02:03 41.80224 -71.24815 13750 ft 370 kts 59°
2026-05-07 02:04 41.81497 -71.21826 13316 ft 370 kts 59°
2026-05-07 02:04 41.82764 -71.18847 13003 ft 364 kts 59°
2026-05-07 02:04 41.83988 -71.15961 12764 ft 358 kts 59°
2026-05-07 02:04 41.85216 -71.13065 12365 ft 356 kts 59°
2026-05-07 02:05 41.86441 -71.10188 12023 ft 354 kts 58°
2026-05-07 02:05 41.87666 -71.07349 11721 ft 349 kts 58°
2026-05-07 02:05 41.88889 -71.04534 11602 ft 349 kts 58°
2026-05-07 02:05 41.90106 -71.01737 11449 ft 345 kts 58°
2026-05-07 02:06 41.91310 -70.98960 11285 ft 344 kts 58°
2026-05-07 02:06 41.92505 -70.96187 11135 ft 342 kts 58°
2026-05-07 02:06 41.93692 -70.93425 10980 ft 341 kts 58°
2026-05-07 02:06 41.94861 -70.90705 10837 ft 340 kts 58°
2026-05-07 02:07 41.96043 -70.87954 10660 ft 340 kts 58°
2026-05-07 02:07 41.98409 -70.82440 10373 ft 341 kts 58°
2026-05-07 02:07 41.99588 -70.79684 10223 ft 340 kts 58°
2026-05-07 02:08 42.00778 -70.76950 10082 ft 338 kts 54°
2026-05-07 02:08 42.02231 -70.74502 9785 ft 334 kts 44°
2026-05-07 02:08 42.03782 -70.72194 9442 ft 331 kts 44°
2026-05-07 02:08 42.05296 -70.69936 9127 ft 328 kts 45°
2026-05-07 02:09 42.06814 -70.67664 8807 ft 326 kts 45°
2026-05-07 02:09 42.08317 -70.65410 8509 ft 323 kts 45°
2026-05-07 02:09 42.09896 -70.63275 8205 ft 317 kts 34°
2026-05-07 02:09 42.11737 -70.61712 7909 ft 309 kts 19°
2026-05-07 02:10 42.13738 -70.60786 7620 ft 301 kts
2026-05-07 02:10 42.15782 -70.60228 7338 ft 299 kts
2026-05-07 02:10 42.17617 -70.59722 7088 ft 297 kts
2026-05-07 02:10 42.19632 -70.59162 6787 ft 295 kts
2026-05-07 02:11 42.21610 -70.58610 6518 ft 293 kts
2026-05-07 02:11 42.23599 -70.58053 6237 ft 292 kts
2026-05-07 02:11 42.25587 -70.57499 5944 ft 291 kts
2026-05-07 02:11 42.27561 -70.56948 5665 ft 289 kts
2026-05-07 02:12 42.29523 -70.56417 5387 ft 285 kts
2026-05-07 02:12 42.31467 -70.56408 5124 ft 275 kts 344°
2026-05-07 02:12 42.33259 -70.57127 4991 ft 265 kts 328°
2026-05-07 02:12 42.34784 -70.58433 4997 ft 256 kts 313°
2026-05-07 02:13 42.36061 -70.60092 5021 ft 255 kts 310°
2026-05-07 02:13 42.37319 -70.61753 5000 ft 257 kts 310°
2026-05-07 02:13 42.38600 -70.63436 4997 ft 257 kts 311°
2026-05-07 02:13 42.39885 -70.65119 4996 ft 257 kts 310°
2026-05-07 02:14 42.41165 -70.66798 4988 ft 257 kts 310°
2026-05-07 02:14 42.42447 -70.68482 4989 ft 257 kts 310°
2026-05-07 02:14 42.43729 -70.70170 4988 ft 257 kts 310°
2026-05-07 02:14 42.45008 -70.71857 4988 ft 257 kts 310°
2026-05-07 02:15 42.46287 -70.73544 4987 ft 257 kts 310°
2026-05-07 02:15 42.47567 -70.75235 4987 ft 257 kts 310°
2026-05-07 02:15 42.48825 -70.76900 4987 ft 257 kts 310°
2026-05-07 02:15 42.50098 -70.78579 4984 ft 250 kts 310°
2026-05-07 02:16 42.51310 -70.80150 4981 ft 234 kts 314°
2026-05-07 02:16 42.52726 -70.81191 4985 ft 238 kts 340°
2026-05-07 02:16 42.54411 -70.81234 4988 ft 250 kts
2026-05-07 02:16 42.56076 -70.80463 4990 ft 254 kts 14°
2026-05-07 02:17 42.57740 -70.79633 4988 ft 255 kts 15°
2026-05-07 02:17 42.59401 -70.78801 4996 ft 255 kts 15°
2026-05-07 02:17 42.61034 -70.77981 4988 ft 252 kts 15°
2026-05-07 02:17 42.62646 -70.77191 4997 ft 236 kts 10°
2026-05-07 02:18 42.64151 -70.77229 4881 ft 207 kts 329°
2026-05-07 02:18 42.65163 -70.78446 4785 ft 191 kts 294°
2026-05-07 02:18 42.65420 -70.80155 4689 ft 186 kts 262°
2026-05-07 02:18 42.64906 -70.81736 4603 ft 187 kts 231°
2026-05-07 02:19 42.63858 -70.82809 4509 ft 190 kts 221°
2026-05-07 02:19 42.62867 -70.83978 4413 ft 188 kts 227°
2026-05-07 02:19 42.61945 -70.85206 4327 ft 188 kts 229°
2026-05-07 02:19 42.61020 -70.86450 4233 ft 187 kts 228°
2026-05-07 02:20 42.60091 -70.87685 4129 ft 187 kts 228°
2026-05-07 02:20 42.59168 -70.88900 4051 ft 181 kts 228°
2026-05-07 02:20 42.58172 -70.89825 3966 ft 168 kts 211°
2026-05-07 02:20 42.57109 -70.90438 3736 ft 163 kts 208°
2026-05-07 02:21 42.56071 -70.90975 3538 ft 157 kts 207°
2026-05-07 02:21 42.55064 -70.91477 3363 ft 152 kts 208°
2026-05-07 02:21 42.54086 -70.91959 3174 ft 148 kts 208°
2026-05-07 02:21 42.53125 -70.92431 3007 ft 150 kts 208°
2026-05-07 02:22 42.52153 -70.92904 2835 ft 146 kts 208°
2026-05-07 02:22 42.51201 -70.93368 2679 ft 144 kts 208°
2026-05-07 02:22 42.50267 -70.93824 2624 ft 143 kts 208°
2026-05-07 02:22 42.49324 -70.94282 2489 ft 144 kts 208°
2026-05-07 02:23 42.48394 -70.94733 2331 ft 141 kts 209°
2026-05-07 02:23 42.47472 -70.95181 2143 ft 141 kts 212°
2026-05-07 02:23 42.46560 -70.95624 1971 ft 139 kts 207°
2026-05-07 02:23 42.45671 -70.96056 1790 ft 136 kts 206°
2026-05-07 02:24 42.44793 -70.96482 1605 ft 133 kts 206°
2026-05-07 02:24 42.43938 -70.96904 1450 ft 129 kts 206°
2026-05-07 02:24 42.43078 -70.97329 1332 ft 132 kts 206°
2026-05-07 02:24 42.42228 -70.97739 1190 ft 129 kts 206°
2026-05-07 02:25 42.41370 -70.98148 994 ft 130 kts 206°
2026-05-07 02:25 42.40508 -70.98559 749 ft 129 kts 202°
2026-05-07 02:25 42.39668 -70.98980 551 ft 127 kts 201°
2026-05-07 02:25 42.38825 -70.99390 388 ft 129 kts 199°
2026-05-07 02:26 42.37980 -70.99801 197 ft 129 kts 199°
2026-05-07 02:26 42.37136 -71.00207 39 ft 127 kts 199°
2026-05-07 02:26 42.36459 -71.00530 26 ft 66 kts 200°
2026-05-07 02:26 42.36244 -71.00634 27 ft 17 kts 198°
2026-05-07 02:27 42.36161 -71.00708 30 ft 13 kts 238°
2026-05-07 02:27 42.36151 -71.00811 29 ft 11 kts 282°
2026-05-07 02:27 42.36181 -71.00908 28 ft 11 kts 295°
2026-05-07 02:27 42.36217 -71.01017 27 ft 18 kts 295°
2026-05-07 02:28 42.36264 -71.01156 26 ft 15 kts 298°
2026-05-07 02:28 42.36308 -71.01255 29 ft 0 kts 302°
2026-05-07 02:28 42.36311 -71.01260 29 ft 4 kts 302°
2026-05-07 02:29 42.36350 -71.01346 28 ft 12 kts 301°
2026-05-07 02:29 42.36383 -71.01443 28 ft 11 kts 290°
2026-05-07 02:29 42.36405 -71.01527 27 ft 8 kts 261°
2026-05-07 02:29 42.36382 -71.01579 26 ft 2 kts 234°
2026-05-07 02:30 42.36381 -71.01580 26 ft 0 kts 234°